| time (UTC) | temp C | wind direction | speed KPH | gust KPH | rain 1hr cm | rain 24hr cm | rain mn cm | humidity % | barometer mb |
| 20260503050703 | 1 | 214 | 1.6 | 3.2 | 0.00 | 0.00 | 0.00 | 93 | 1019.3 |
| 20260503050204 | 1 | 209 | 1.6 | 3.2 | 0.00 | 0.03 | 0.00 | 92 | 1019.3 |
| 20260503045704 | 2 | 197 | 1.6 | 3.2 | 0.00 | 0.03 | 0.00 | 92 | 1019.3 |
| 20260503045203 | 2 | 211 | 1.6 | 3.2 | 0.00 | 0.03 | 0.00 | 91 | 1019.3 |
| 20260503044704 | 2 | 286 | 1.6 | 3.2 | 0.00 | 0.03 | 0.00 | 90 | 1019.4 |
| 20260503044203 | 2 | 356 | 1.6 | 3.2 | 0.00 | 0.03 | 0.00 | 91 | 1019.3 |
| 20260503043704 | 2 | 254 | 0.0 | 1.6 | 0.00 | 0.03 | 0.00 | 91 | 1019.3 |
| 20260503042703 | 1 | 256 | 0.0 | 3.2 | 0.00 | 0.05 | 0.00 | 93 | 1019.5 |
| 20260503042203 | 1 | 225 | 1.6 | 3.2 | 0.00 | 0.05 | 0.00 | 93 | 1019.6 |
| 20260503041703 | 1 | 230 | 0.0 | 3.2 | 0.00 | 0.08 | 0.00 | 94 | 1019.6 |
| 20260503041203 | 1 | 248 | 1.6 | 3.2 | 0.00 | 0.08 | 0.00 | 94 | 1019.6 |
| 20260503040703 | 1 | 202 | 1.6 | 1.6 | 0.00 | 0.08 | 0.00 | 94 | 1019.8 |
| 20260503040203 | 1 | 230 | 0.0 | 3.2 | 0.00 | 0.10 | 0.00 | 94 | 1019.8 |
| 20260503035704 | 1 | 194 | 1.6 | 3.2 | 0.00 | 0.10 | 0.00 | 94 | 1019.6 |
| 20260503034704 | 1 | 185 | 1.6 | 3.2 | 0.00 | 0.13 | 0.00 | 93 | 1019.8 |
| 20260503034203 | 1 | 186 | 1.6 | 4.8 | 0.00 | 0.13 | 0.00 | 92 | 1019.8 |
| 20260503033204 | 1 | 200 | 3.2 | 3.2 | 0.00 | 0.15 | 0.00 | 91 | 1019.8 |
| 20260503031703 | 1 | 299 | 1.6 | 3.2 | 0.00 | 0.18 | 0.00 | 92 | 1019.8 |
| 20260503031203 | 1 | 235 | 0.0 | 3.2 | 0.00 | 0.18 | 0.00 | 91 | 1020.0 |
| 20260503030704 | 1 | 258 | 1.6 | 3.2 | 0.00 | 0.18 | 0.00 | 90 | 1019.8 |
| 20260503030204 | 1 | 267 | 1.6 | 3.2 | 0.00 | 0.18 | 0.00 | 89 | 1019.6 |
| 20260503025704 | 1 | 275 | 0.0 | 3.2 | 0.00 | 0.20 | 0.00 | 87 | 1019.8 |
| 20260503025204 | 2 | 247 | 1.6 | 3.2 | 0.00 | 0.20 | 0.00 | 87 | 1019.6 |
| 20260503024204 | 2 | 301 | 1.6 | 4.8 | 0.00 | 0.23 | 0.00 | 86 | 1019.8 |
| 20260503023703 | 2 | 219 | 1.6 | 3.2 | 0.00 | 0.23 | 0.00 | 85 | 1019.8 |
| 20260503023204 | 2 | 280 | 3.2 | 4.8 | 0.00 | 0.25 | 0.00 | 86 | 1019.8 |
| 20260503022704 | 1 | 245 | 1.6 | 3.2 | 0.00 | 0.25 | 0.00 | 87 | 1019.6 |
| 20260503022203 | 1 | 237 | 1.6 | 3.2 | 0.00 | 0.25 | 0.00 | 88 | 1019.8 |
| 20260503021703 | 1 | 235 | 1.6 | 3.2 | 0.00 | 0.25 | 0.00 | 87 | 1019.6 |
| 20260503020703 | 2 | 221 | 1.6 | 4.8 | 0.00 | 0.28 | 0.00 | 82 | 1019.6 |
| 20260503020203 | 2 | 227 | 1.6 | 3.2 | 0.00 | 0.30 | 0.00 | 83 | 1019.6 |
| 20260503015704 | 2 | 240 | 1.6 | 3.2 | 0.00 | 0.30 | 0.00 | 83 | 1019.8 |
| 20260503015204 | 2 | 280 | 1.6 | 3.2 | 0.00 | 0.30 | 0.00 | 81 | 1019.6 |
| 20260503014704 | 2 | 244 | 0.0 | 3.2 | 0.00 | 0.30 | 0.00 | 81 | 1019.6 |
| 20260503013704 | 2 | 247 | 1.6 | 3.2 | 0.00 | 0.30 | 0.00 | 78 | 1019.6 |
| 20260503013203 | 3 | 272 | 1.6 | 3.2 | 0.00 | 0.30 | 0.00 | 78 | 1019.6 |
| 20260503012703 | 3 | 235 | 1.6 | 3.2 | 0.00 | 0.30 | 0.00 | 76 | 1019.5 |
| 20260503012203 | 3 | 280 | 1.6 | 3.2 | 0.00 | 0.33 | 0.00 | 74 | 1019.3 |
| 20260503011704 | 3 | 292 | 1.6 | 3.2 | 0.00 | 0.33 | 0.00 | 73 | 1019.1 |
| 20260503011204 | 3 | 304 | 3.2 | 3.2 | 0.00 | 0.33 | 0.00 | 71 | 1019.3 |
| 20260503010203 | 4 | 346 | 4.8 | 11.3 | 0.00 | 0.36 | 0.00 | 69 | 1018.9 |
| 20260503005704 | 4 | 339 | 3.2 | 4.8 | 0.00 | 0.36 | 0.00 | 69 | 1019.1 |
| 20260503005203 | 4 | 322 | 3.2 | 4.8 | 0.00 | 0.36 | 0.00 | 69 | 1018.9 |
| 20260503004703 | 4 | 329 | 3.2 | 4.8 | 0.00 | 0.36 | 0.00 | 70 | 1018.9 |
| 20260503004203 | 5 | 331 | 3.2 | 4.8 | 0.00 | 0.36 | 0.00 | 68 | 1018.9 |
| 20260503003703 | 5 | 332 | 3.2 | 8.0 | 0.00 | 0.36 | 0.00 | 67 | 1018.9 |
| 20260503003204 | 5 | 326 | 3.2 | 9.7 | 0.00 | 0.36 | 0.00 | 68 | 1018.9 |
| 20260503002703 | 5 | 312 | 3.2 | 4.8 | 0.00 | 0.36 | 0.00 | 67 | 1018.6 |
| 20260503002203 | 5 | 323 | 3.2 | 4.8 | 0.00 | 0.36 | 0.00 | 66 | 1018.7 |
| 20260503001703 | 5 | 325 | 3.2 | 8.0 | 0.00 | 0.36 | 0.00 | 64 | 1018.5 |
| 20260503001203 | 5 | 317 | 3.2 | 8.0 | 0.00 | 0.36 | 0.00 | 62 | 1018.6 |
| 20260503000703 | 5 | 359 | 3.2 | 9.7 | 0.00 | 0.36 | 0.00 | 63 | 1018.6 |
| 20260503000204 | 6 | 307 | 3.2 | 9.7 | 0.00 | 0.36 | 0.00 | 61 | 1018.3 |
| 20260502235204 | 6 | 332 | 3.2 | 11.3 | 0.00 | 0.36 | 0.00 | 60 | 1018.3 |
| 20260502234704 | 6 | 296 | 4.8 | 11.3 | 0.00 | 0.36 | 0.00 | 58 | 1018.3 |
| 20260502234204 | 6 | 335 | 4.8 | 9.7 | 0.00 | 0.36 | 0.00 | 59 | 1018.3 |
| 20260502233704 | 7 | 328 | 8.0 | 19.3 | 0.00 | 0.36 | 0.00 | 57 | 1017.9 |
| 20260502233204 | 7 | 351 | 4.8 | 16.1 | 0.00 | 0.36 | 0.00 | 57 | 1018.1 |
| 20260502232704 | 7 | 325 | 8.0 | 22.5 | 0.00 | 0.36 | 0.00 | 56 | 1018.1 |
| 20260502232203 | 7 | 351 | 6.4 | 12.9 | 0.00 | 0.36 | 0.00 | 56 | 1018.1 |
| 20260502231704 | 7 | 298 | 8.0 | 14.5 | 0.00 | 0.36 | 0.00 | 54 | 1017.9 |
| 20260502231204 | 7 | 311 | 4.8 | 12.9 | 0.00 | 0.36 | 0.00 | 53 | 1017.9 |
| 20260502230704 | 7 | 293 | 8.0 | 20.9 | 0.00 | 0.36 | 0.00 | 51 | 1018.1 |
| 20260502230204 | 7 | 301 | 12.9 | 22.5 | 0.00 | 0.36 | 0.00 | 50 | 1017.9 |
| 20260502225703 | 8 | 321 | 12.9 | 22.5 | 0.00 | 0.36 | 0.00 | 51 | 1017.7 |
| 20260502225203 | 8 | 351 | 6.4 | 19.3 | 0.00 | 0.36 | 0.00 | 50 | 1017.9 |
| 20260502224703 | 8 | 320 | 4.8 | 16.1 | 0.00 | 0.36 | 0.00 | 50 | 1017.8 |
| 20260502223704 | 8 | 290 | 8.0 | 20.9 | 0.00 | 0.36 | 0.00 | 50 | 1017.9 |
| 20260502223203 | 8 | 347 | 3.2 | 20.9 | 0.00 | 0.36 | 0.00 | 49 | 1017.6 |
| 20260502222203 | 8 | 294 | 9.7 | 22.5 | 0.00 | 0.36 | 0.00 | 50 | 1017.7 |
| 20260502221704 | 8 | 244 | 8.0 | 20.9 | 0.00 | 0.36 | 0.00 | 47 | 1017.6 |
| 20260502221204 | 8 | 331 | 9.7 | 25.7 | 0.00 | 0.36 | 0.00 | 48 | 1017.6 |
| 20260502220703 | 8 | 293 | 11.3 | 25.7 | 0.00 | 0.36 | 0.00 | 49 | 1017.7 |
| 20260502220203 | 7 | 301 | 6.4 | 22.5 | 0.00 | 0.36 | 0.00 | 51 | 1017.6 |
| 20260502215704 | 7 | 298 | 6.4 | 22.5 | 0.00 | 0.36 | 0.00 | 52 | 1017.9 |
| 20260502215203 | 7 | 312 | 4.8 | 20.9 | 0.00 | 0.36 | 0.00 | 52 | 1017.9 |
| 20260502214704 | 7 | 325 | 11.3 | 20.9 | 0.00 | 0.36 | 0.00 | 52 | 1017.6 |
| 20260502214203 | 7 | 311 | 11.3 | 19.3 | 0.00 | 0.36 | 0.00 | 50 | 1017.8 |
| 20260502213704 | 7 | 300 | 4.8 | 20.9 | 0.00 | 0.36 | 0.00 | 53 | 1017.6 |
| 20260502213204 | 8 | 305 | 8.0 | 16.1 | 0.00 | 0.36 | 0.00 | 52 | 1017.8 |
| 20260502212703 | 7 | 311 | 8.0 | 16.1 | 0.00 | 0.36 | 0.00 | 54 | 1017.7 |
| 20260502212203 | 8 | 322 | 8.0 | 14.5 | 0.00 | 0.36 | 0.00 | 52 | 1017.9 |
| 20260502211203 | 7 | 311 | 8.0 | 14.5 | 0.00 | 0.36 | 0.00 | 56 | 1017.9 |
| 20260502210703 | 7 | 272 | 8.0 | 20.9 | 0.00 | 0.36 | 0.00 | 56 | 1018.1 |
| 20260502210204 | 7 | 292 | 8.0 | 14.5 | 0.00 | 0.36 | 0.00 | 56 | 1017.9 |
| 20260502205203 | 7 | 288 | 8.0 | 20.9 | 0.00 | 0.36 | 0.00 | 57 | 1018.3 |
| 20260502204203 | 7 | 329 | 9.7 | 20.9 | 0.00 | 0.36 | 0.00 | 58 | 1017.9 |
| 20260502203704 | 7 | 343 | 11.3 | 22.5 | 0.00 | 0.36 | 0.00 | 58 | 1018.1 |
| 20260502202703 | 7 | 344 | 9.7 | 24.1 | 0.00 | 0.36 | 0.00 | 59 | 1018.3 |
| 20260502202203 | 7 | 308 | 4.8 | 19.3 | 0.00 | 0.36 | 0.00 | 58 | 1017.9 |
| 20260502201703 | 7 | 285 | 6.4 | 16.1 | 0.00 | 0.36 | 0.00 | 58 | 1017.9 |
| 20260502201203 | 7 | 309 | 8.0 | 16.1 | 0.00 | 0.36 | 0.00 | 58 | 1018.1 |
| 20260502200703 | 7 | 317 | 4.8 | 11.3 | 0.00 | 0.36 | 0.00 | 57 | 1018.1 |
| 20260502200204 | 7 | 304 | 9.7 | 20.9 | 0.00 | 0.36 | 0.00 | 58 | 1018.1 |
| 20260502195704 | 7 | 319 | 6.4 | 16.1 | 0.00 | 0.36 | 0.00 | 58 | 1018.1 |
| 20260502195203 | 7 | 9 | 9.7 | 16.1 | 0.00 | 0.36 | 0.00 | 58 | 1018.1 |
| 20260502194704 | 7 | 338 | 6.4 | 19.3 | 0.00 | 0.36 | 0.00 | 57 | 1018.3 |
| 20260502193703 | 7 | 359 | 8.0 | 16.1 | 0.00 | 0.36 | 0.00 | 55 | 1018.3 |
| 20260502192703 | 7 | 315 | 8.0 | 20.9 | 0.00 | 0.36 | 0.00 | 55 | 1018.3 |
| 20260502192203 | 7 | 339 | 9.7 | 19.3 | 0.00 | 0.36 | 0.00 | 55 | 1018.3 |
| 20260502191703 | 7 | 338 | 4.8 | 11.3 | 0.00 | 0.36 | 0.00 | 56 | 1018.3 |
| 20260502191203 | 7 | 279 | 4.8 | 12.9 | 0.00 | 0.36 | 0.00 | 54 | 1018.5 |
| 20260502190704 | 7 | 281 | 8.0 | 20.9 | 0.00 | 0.36 | 0.00 | 52 | 1018.3 |
| 20260502190203 | 7 | 230 | 8.0 | 20.9 | 0.00 | 0.36 | 0.00 | 53 | 1018.5 |
| 20260502185203 | 7 | 300 | 11.3 | 25.7 | 0.00 | 0.36 | 0.00 | 55 | 1018.4 |
| 20260502184703 | 7 | 294 | 8.0 | 16.1 | 0.00 | 0.36 | 0.00 | 55 | 1018.6 |
| 20260502184203 | 7 | 316 | 3.2 | 14.5 | 0.00 | 0.36 | 0.00 | 56 | 1018.6 |
| 20260502183204 | 7 | 320 | 6.4 | 14.5 | 0.00 | 0.36 | 0.00 | 55 | 1018.3 |
| 20260502182703 | 7 | 322 | 3.2 | 11.3 | 0.00 | 0.36 | 0.00 | 56 | 1018.5 |
| 20260502181703 | 7 | 265 | 9.7 | 20.9 | 0.00 | 0.36 | 0.00 | 51 | 1018.3 |
| 20260502181204 | 7 | 254 | 8.0 | 16.1 | 0.00 | 0.36 | 0.00 | 52 | 1018.3 |
| 20260502180704 | 7 | 263 | 9.7 | 22.5 | 0.00 | 0.36 | 0.00 | 52 | 1018.3 |
| 20260502180204 | 7 | 310 | 9.7 | 16.1 | 0.00 | 0.36 | 0.00 | 55 | 1018.3 |
| 20260502170204 | 7 | 324 | 9.7 | 20.9 | 0.00 | 0.36 | 0.00 | 59 | 1018.3 |
| 20260502164204 | 7 | 359 | 4.8 | 14.5 | 0.00 | 0.36 | 0.00 | 60 | 1018.6 |
| 20260502163703 | 6 | 354 | 8.0 | 19.3 | 0.00 | 0.36 | 0.00 | 61 | 1018.7 |
| 20260502163204 | 7 | 27 | 6.4 | 14.5 | 0.00 | 0.36 | 0.00 | 62 | 1018.9 |
| 20260502162703 | 6 | 300 | 4.8 | 14.5 | 0.00 | 0.36 | 0.00 | 62 | 1018.6 |
| 20260502162204 | 6 | 301 | 9.7 | 14.5 | 0.00 | 0.36 | 0.00 | 64 | 1018.6 |
| 20260502161203 | 6 | 322 | 9.7 | 19.3 | 0.00 | 0.36 | 0.00 | 67 | 1018.9 |
| 20260502160703 | 6 | 344 | 11.3 | 22.5 | 0.00 | 0.36 | 0.00 | 66 | 1018.9 |
| 20260502160204 | 7 | 333 | 9.7 | 19.3 | 0.00 | 0.36 | 0.00 | 63 | 1018.8 |
| 20260502151704 | 6 | 321 | 9.7 | 20.9 | 0.00 | 0.36 | 0.00 | 66 | 1019.3 |
| 20260502151203 | 6 | 338 | 12.9 | 22.5 | 0.00 | 0.36 | 0.00 | 66 | 1019.1 |
| 20260502150704 | 6 | 336 | 6.4 | 20.9 | 0.00 | 0.36 | 0.00 | 70 | 1019.0 |
| 20260502150203 | 5 | 354 | 9.7 | 33.8 | 0.00 | 0.36 | 0.00 | 70 | 1019.1 |
| 20260502130703 | 4 | 341 | 11.3 | 20.9 | 0.00 | 0.36 | 0.00 | 86 | 1019.6 |
| 20260502130203 | 4 | 356 | 8.0 | 20.9 | 0.00 | 0.36 | 0.00 | 85 | 1019.4 |
| 20260502123703 | 3 | 339 | 8.0 | 20.9 | 0.00 | 0.36 | 0.00 | 88 | 1019.5 |
| 20260502123203 | 3 | 335 | 9.7 | 20.9 | 0.00 | 0.36 | 0.00 | 90 | 1019.4 |
| 20260502122703 | 4 | 338 | 8.0 | 20.9 | 0.00 | 0.36 | 0.00 | 90 | 1019.4 |
| 20260502122203 | 4 | 349 | 8.0 | 22.5 | 0.00 | 0.36 | 0.00 | 90 | 1019.3 |
| 20260502121703 | 4 | 307 | 8.0 | 20.9 | 0.00 | 0.36 | 0.00 | 90 | 1019.3 |
| 20260502121204 | 4 | 352 | 12.9 | 20.9 | 0.00 | 0.36 | 0.00 | 88 | 1019.3 |
| 20260502120703 | 4 | 332 | 11.3 | 24.1 | 0.00 | 0.36 | 0.00 | 89 | 1019.3 |
| 20260502120204 | 5 | 312 | 8.0 | 16.1 | 0.00 | 0.36 | 0.00 | 91 | 1019.1 |
| 20260502115704 | 4 | 330 | 9.7 | 14.5 | 0.00 | 0.36 | 0.00 | 93 | 1019.3 |
| 20260502115203 | 5 | 257 | 4.8 | 12.9 | 0.00 | 0.36 | 0.00 | 95 | 1019.3 |
| 20260502114703 | 5 | 322 | 8.0 | 14.5 | 0.00 | 0.36 | 0.00 | 95 | 1019.1 |
| 20260502114203 | 5 | 288 | 8.0 | 16.1 | 0.00 | 0.36 | 0.00 | 94 | 1018.9 |
| 20260502113203 | 5 | 265 | 4.8 | 12.9 | 0.00 | 0.36 | 0.00 | 96 | 1018.9 |
| 20260502112203 | 4 | 235 | 4.8 | 9.7 | 0.00 | 0.36 | 0.00 | 97 | 1018.9 |
| 20260502111703 | 4 | 286 | 8.0 | 16.1 | 0.00 | 0.36 | 0.00 | 98 | 1018.7 |
| 20260502111203 | 4 | 258 | 4.8 | 9.7 | 0.00 | 0.36 | 0.00 | 98 | 1018.9 |
| 20260502110703 | 4 | 305 | 6.4 | 12.9 | 0.00 | 0.36 | 0.00 | 99 | 1018.7 |
| 20260502110203 | 3 | 298 | 4.8 | 11.3 | 0.00 | 0.36 | 0.00 | 99 | 1018.9 |
| 20260502105703 | 4 | 264 | 8.0 | 14.5 | 0.00 | 0.36 | 0.36 | 99 | 1018.8 |
| 20260502104703 | 3 | 287 | 6.4 | 12.9 | 0.00 | 0.36 | 0.36 | 99 | 1018.8 |
| 20260502104204 | 3 | 249 | 4.8 | 9.7 | 0.00 | 0.36 | 0.36 | 99 | 1018.6 |
| 20260502103704 | 3 | 294 | 4.8 | 9.7 | 0.00 | 0.36 | 0.36 | 99 | 1018.7 |
| 20260502103204 | 3 | 237 | 3.2 | 4.8 | 0.00 | 0.36 | 0.36 | 99 | 1018.9 |
| 20260502102704 | 3 | 223 | 3.2 | 4.8 | 0.00 | 0.36 | 0.36 | 99 | 1018.7 |
| 20260502102203 | 3 | 8 | 1.6 | 4.8 | 0.00 | 0.36 | 0.36 | 99 | 1018.9 |
| 20260502101203 | 3 | 235 | 0.0 | 1.6 | 0.00 | 0.36 | 0.36 | 99 | 1018.6 |
| 20260502100203 | 3 | 239 | 1.6 | 3.2 | 0.00 | 0.36 | 0.36 | 99 | 1018.4 |
| 20260502091203 | 3 | 314 | 0.0 | 3.2 | 0.00 | 0.36 | 0.36 | 99 | 1018.3 |
| 20260502090703 | 3 | 313 | 1.6 | 3.2 | 0.00 | 0.36 | 0.36 | 99 | 1018.3 |
| 20260502090203 | 3 | 274 | 1.6 | 3.2 | 0.00 | 0.36 | 0.36 | 99 | 1017.9 |
| 20260502071203 | 4 | 207 | 4.8 | 9.7 | 0.00 | 0.36 | 0.36 | 99 | 1017.9 |
| 20260502070203 | 3 | 217 | 1.6 | 3.2 | 0.00 | 0.36 | 0.36 | 99 | 1017.4 |
| 20260502065703 | 3 | 257 | 1.6 | 1.6 | 0.00 | 0.36 | 0.36 | 99 | 1017.4 |
| 20260502064704 | 3 | 302 | 1.6 | 3.2 | 0.00 | 0.36 | 0.36 | 99 | 1017.2 |
| 20260502064204 | 3 | 346 | 1.6 | 4.8 | 0.00 | 0.36 | 0.36 | 99 | 1017.4 |
| 20260502063704 | 3 | 334 | 3.2 | 4.8 | 0.00 | 0.36 | 0.36 | 99 | 1017.6 |
| 20260502063203 | 3 | 348 | 3.2 | 3.2 | 0.00 | 0.36 | 0.36 | 99 | 1017.6 |
| 20260502062704 | 3 | 296 | 3.2 | 4.8 | 0.00 | 0.36 | 0.36 | 99 | 1017.8 |
| 20260502062204 | 3 | 335 | 1.6 | 3.2 | 0.00 | 0.36 | 0.36 | 99 | 1017.9 |
| 20260502061704 | 3 | 279 | 1.6 | 3.2 | 0.00 | 0.36 | 0.36 | 99 | 1017.8 |
| 20260502061203 | 4 | 316 | 1.6 | 4.8 | 0.00 | 0.36 | 0.36 | 99 | 1017.9 |
| 20260502060703 | 4 | 292 | 1.6 | 4.8 | 0.00 | 0.36 | 0.36 | 99 | 1018.1 |
| 20260502060203 | 4 | 237 | 1.6 | 3.2 | 0.00 | 0.36 | 0.36 | 99 | 1018.3 |
| 20260502055703 | 4 | 269 | 1.6 | 4.8 | 0.03 | 0.36 | 0.36 | 99 | 1017.9 |
| 20260502055203 | 4 | 328 | 3.2 | 8.0 | 0.03 | 0.36 | 0.36 | 99 | 1017.9 |
| 20260502054703 | 4 | 335 | 3.2 | 4.8 | 0.03 | 0.36 | 0.36 | 99 | 1018.1 |
| 20260502054204 | 4 | 254 | 1.6 | 3.2 | 0.03 | 0.36 | 0.36 | 99 | 1018.1 |
| 20260502053704 | 4 | 305 | 3.2 | 8.0 | 0.03 | 0.36 | 0.36 | 99 | 1018.3 |
| 20260502052704 | 4 | 220 | 0.0 | 4.8 | 0.03 | 0.36 | 0.36 | 99 | 1018.1 |
| 20260502052203 | 4 | 290 | 1.6 | 3.2 | 0.05 | 0.36 | 0.36 | 99 | 1018.3 |
| 20260502051703 | 4 | 225 | 1.6 | 3.2 | 0.05 | 0.36 | 0.36 | 99 | 1018.3 |